Location: *
(37.9500°N, 27.3666°E)
Time: 14:31:03
(UTC+00:00)

Cosmos 1758 Rocket - Pass Details

Date: 24 October 2021
Orbit: 602 x 635 km, 82.5° (Epoch: 05 December)

Event Time Altitude Azimuth Distance (km) Brightness Sun altitude
Rises 16:39:22 0° 1° (N) 2,864 6.9 -16.1°
Reaches altitude 10° 16:41:43 10° 9° (N) 1,958 6.0 -16.6°
Maximum altitude 16:45:46 39° 78° (ENE) 920 3.9 -17.4°
Enters shadow 16:46:55 32° 114° (ESE) 1,041 4.2 -17.6°
